Hebron, KY

12:05 PM EST on February 14, 2016 (GMT -0500)
Cincinnati-Northern KY International

Weather History for KCVG - March, 2011

Change the Weather History Date:

Friday, March 18, 2011

  Actual Average Record
Temperature  
Mean Temperature 57 °F 44 °F  
Max Temperature 68 °F 54 °F 79 °F (2012)
Min Temperature 45 °F 35 °F 8 °F (1941)
Degree Days  
Heating Degree Days 8 21  
Month to date heating degree days 372 428  
Since 1 July heating degree days 4412 4255  
Cooling Degree Days 0 0  
Month to date cooling degree days 0 0  
Year to date cooling degree days 0 0  
Growing Degree Days 6 (Base 50)    
Moisture  
Dew Point 49 °F    
Average Humidity 73    
Maximum Humidity 93    
Minimum Humidity 52    
Precipitation  
Precipitation 0.50 in 0.14 in 3.25 in (2008)
Month to date precipitation 4.11 2.14  
Year to date precipitation 11.48 7.95  
Snow  
Snow 0.00 in 0.10 in 2.20 in (1981)
Month to date snowfall 1.1 2.1  
Since 1 July snowfall 33.5 20.7  
Snow Depth 0.00 in    
Sea Level Pressure  
Sea Level Pressure 30.10 in    
Wind  
Wind Speed 7 mph (WNW)    
Max Wind Speed 28 mph    
Max Gust Speed 33 mph    
Visibility 8 miles    
Events Rain , Thunderstorm    
T = Trace of Precipitation, MM = Missing Value Source: NWS Daily Summary

Daily Weather History Graph

Daily Weather History Graph

Search for Another Location

Airport or City:

Trip Planner

Search our weather history database for the weather conditions in past years. The results will help you decide how hot, cold, wet, or windy it might be!

Date:

Astronomy

Mar. 18, 2011 Rise Set
Actual Time 7:45 AM EDT 7:48 PM EDT
Civil Twilight 7:19 AM EDT 8:15 PM EDT
Nautical Twilight 6:48 AM EDT 8:46 PM EDT
Astronomical Twilight 6:16 AM EDT 9:17 PM EDT
Moon 6:55 PM EDT (3/18) 6:42 AM EDT (3/18)
Length of Visible Light 12h 55m
Length of Day
12h 02m
Waxing Gibbous, 98% of the Moon is Illuminated
Mar 18
Waxing Gibbous
Mar 19
Full
Mar 26
Last Quarter
Apr 3
New
Apr 11
First Quarter

Hourly Weather History & Observations

Time (EDT) Temp. Dew Point Humidity Pressure Visibility Wind Dir Wind Speed Gust Speed Precip Events Conditions
12:52 AM 64.9 °F 46.0 °F 50% 30.00 in 10.0 mi SSW 10.4 mph - N/A   Overcast
1:52 AM 64.0 °F 46.0 °F 52% 29.99 in 10.0 mi SSW 9.2 mph 18.4 mph N/A   Mostly Cloudy
2:52 AM 63.0 °F 46.0 °F 54% 30.00 in 10.0 mi SW 9.2 mph - N/A   Scattered Clouds
3:52 AM 63.0 °F 46.0 °F 54% 30.00 in 10.0 mi SW 10.4 mph - N/A   Overcast
4:52 AM 64.0 °F 48.0 °F 56% 30.00 in 10.0 mi WSW 10.4 mph - N/A   Overcast
5:52 AM 62.1 °F 48.9 °F 62% 30.01 in 10.0 mi SW 6.9 mph - N/A   Overcast
6:52 AM 60.1 °F 48.0 °F 64% 30.04 in 10.0 mi SSW 4.6 mph - N/A   Overcast
7:36 AM 60.8 °F 46.4 °F 59% 30.07 in 10.0 mi SSW 5.8 mph - N/A   Overcast
7:52 AM 60.1 °F 48.0 °F 64% 30.06 in 10.0 mi SSW 5.8 mph - N/A   Overcast
8:52 AM 61.0 °F 48.9 °F 64% 30.08 in 10.0 mi SSW 5.8 mph - N/A   Overcast
9:52 AM 62.1 °F 50.0 °F 65% 30.09 in 10.0 mi SSW 4.6 mph - N/A   Overcast
10:52 AM 63.0 °F 52.0 °F 67% 30.09 in 10.0 mi SW 4.6 mph - N/A   Overcast
11:52 AM 63.0 °F 55.0 °F 75% 30.09 in 10.0 mi WSW 3.5 mph - 0.00 in   Overcast
12:52 PM 63.0 °F 57.0 °F 81% 30.09 in 8.0 mi Calm Calm - 0.01 in   Light Drizzle
1:08 PM 64.4 °F 55.4 °F 73% 30.10 in 8.0 mi West 3.5 mph - 0.00 in   Mostly Cloudy
1:52 PM 66.0 °F 55.9 °F 70% 30.06 in 8.0 mi Variable 3.5 mph - 0.00 in   Mostly Cloudy
2:23 PM 66.2 °F 55.4 °F 68% 30.08 in 8.0 mi WSW 5.8 mph - N/A   Overcast
2:52 PM 66.0 °F 55.9 °F 70% 30.07 in 8.0 mi West 10.4 mph - N/A   Overcast
3:52 PM 63.0 °F 52.0 °F 67% 30.08 in 9.0 mi NNW 15.0 mph - 0.00 in   Overcast
4:07 PM 60.8 °F 53.6 °F 77% 30.10 in 2.5 mi NNW 15.0 mph 23.0 mph 0.00 in Rain Light Rain
4:23 PM 59.0 °F 55.4 °F 88% 30.10 in 4.0 mi North 9.2 mph - 0.01 in Rain Light Rain
4:37 PM 59.0 °F 53.6 °F 82% 30.09 in 7.0 mi North 6.9 mph - 0.01 in   Overcast
4:52 PM 60.1 °F 51.1 °F 72% 30.07 in 9.0 mi NNE 4.6 mph - 0.01 in   Overcast
5:31 PM 57.2 °F 44.6 °F 63% 30.11 in 10.0 mi North 20.7 mph - 0.00 in Rain , Thunderstorm Light Thunderstorms and Rain
5:37 PM 53.6 °F 46.4 °F 77% 30.13 in 1.5 mi NNW 18.4 mph 33.4 mph 0.00 in Rain , Thunderstorm Heavy Thunderstorms and Rain
5:45 PM 51.8 °F 48.2 °F 88% 30.10 in 2.0 mi NNW 16.1 mph - N/A Rain , Thunderstorm Thunderstorms and Rain
5:52 PM 51.8 °F 48.2 °F 88% 30.13 in 2.5 mi NNW 16.1 mph - N/A Rain , Thunderstorm Thunderstorms and Rain
6:00 PM 50.0 °F 48.2 °F 94% 30.11 in 6.0 mi North 13.8 mph - 0.01 in Rain Light Rain
6:07 PM 51.8 °F 48.2 °F 88% 30.16 in 6.0 mi WNW 11.5 mph - 0.01 in Rain , Thunderstorm Light Thunderstorms and Rain
6:10 PM 50.0 °F 48.2 °F 94% 30.14 in 2.0 mi NW 8.1 mph - 0.02 in Rain , Thunderstorm Light Thunderstorms and Rain
6:23 PM 50.0 °F 48.2 °F 94% 30.15 in 7.0 mi NNW 19.6 mph 26.5 mph 0.09 in Rain , Thunderstorm Light Thunderstorms and Rain
6:31 PM 50.0 °F 46.4 °F 87% 30.15 in 2.0 mi North 11.5 mph 26.5 mph 0.10 in Rain , Thunderstorm Thunderstorms and Rain
6:52 PM 48.9 °F 46.0 °F 90% 30.16 in 8.0 mi NW 8.1 mph - 0.20 in Rain Light Rain
7:02 PM 48.2 °F 46.4 °F 93% 30.17 in 5.0 mi West 5.8 mph - 0.01 in Rain Light Rain
7:52 PM 48.9 °F 46.0 °F 90% 30.18 in 6.0 mi WNW 8.1 mph - 0.02 in Rain Rain
8:52 PM 48.0 °F 46.0 °F 93% 30.19 in 7.0 mi WNW 3.5 mph - 0.09 in Rain Light Rain
9:52 PM 48.0 °F 44.1 °F 86% 30.20 in 10.0 mi NNW 5.8 mph - 0.01 in   Overcast
10:52 PM 46.9 °F 44.1 °F 90% 30.22 in 10.0 mi West 3.5 mph - N/A   Mostly Cloudy
11:52 PM 45.0 °F 43.0 °F 93% 30.25 in 10.0 mi Calm Calm - N/A   Mostly Cloudy